Weather in Quiberon

France     47°29′07″N   3°07′16″W
temp.,
°C
wind,
m/s
gust,
m/s
humid.,
%
clouds,
%
prec.,
mm/h
press.,
hPa
HPBL,
m
6 march, sat
sat601:00+5ene8116962 0.0 10301068
04:00+4ne810710 0.0 1029801
07:00+3ne810740 0.0 1029478
10:00+4ne810680 0.0 1030502
13:00+7ene78620 0.0 10291151
16:00+8ene67632 0.0 10271271
19:00+8ene676132 0.0 10261183
22:00+6ne67690 0.0 1027389
7 march, sun
sun701:00+5ne79700 0.0 1027343
04:00+4ne78710 0.0 1026288
07:00+3ne78700 0.0 1026329
10:00+4ne67670 0.0 1025362
13:00+7ne57530 0.0 1025847
16:00+9ne57550 0.0 10231109
19:00+8nne78660 0.0 1023876
22:00+5nne911800 0.0 1024399
8 march, mon
mon801:00+4ne89810 0.0 1024322
04:00+3ne78810 0.0 1024281
07:00+3ne67800 0.0 1024278
10:00+4ne55730 0.0 1025324
13:00+6ene23560 0.0 1025615
16:00+7wsw33590 0.0 1023317
19:00+7wnw66690 0.0 1023410
22:00+6ne457736 0.0 1024252
9 march, tue
tue901:00+5ne337448 0.0 1024191
04:00+5nnw3375100 0.0 1024183
07:00+5nnw2274100 0.0 1024204
10:00+5wnw127162 0.0 1024213
13:00+7sw347231 0.0 1024531
16:00+8sw567053 0.0 1022802
19:00+9sw567076 0.0 1022766
22:00+9sw8974100 0.0 1022718
10 march, wed
wed1001:00+9sw91180100 0.0 1021761
04:00+10ssw111484100 0.0 1019635
07:00+10sw131791100 0.9 1018608
10:00+10sw131893100 2.4 1017617
13:00+11sw141993100 4.9 1017581
16:00+11sw121892100 0.4 1016473
19:00+11sw121892100 0.6 1014507
22:00+11sw131994100 0.3 1015508